PGT77PX EBCI-LTFJ

Flight info

Callsign PGT77PX
Flight time 2h 52m
Altitude 39000
Route SOPOK Y863 OGLOR DCT EMGOD L607 ULNOK DCT VIBOM DCT NOMBO DCT RIDAR DCT GOMIG DCT GOTAR DCT BABIT DCT ESIRI DCT ETIDA DCT BUFRA DCT ADORU UM19 IBODU
Aircraft A20N/M-SDE2E3FGHIJ1RWXY/LB1

Departure

Time 2026-05-04 12:56
Airport Brussels South Charleroi Airport (EBCI)

Arrival

Time 2026-05-04 15:48
Airport Istanbul Sabiha Gökçen International Airport (LTFJ)
Time Latitude Longitude Altitude Speed Heading
2026-05-04 12:26 50.46940 4.47346 585 ft 0 kts 335°
2026-05-04 12:27 50.46944 4.47343 585 ft 0 kts 335°
2026-05-04 12:47 50.46937 4.47348 584 ft 4 kts 335°
2026-05-04 12:48 50.46916 4.47363 584 ft 3 kts 336°
2026-05-04 12:48 50.46893 4.47370 584 ft 4 kts 32°
2026-05-04 12:48 50.46879 4.47339 585 ft 4 kts 70°
2026-05-04 12:48 50.46875 4.47325 584 ft 0 kts 65°
2026-05-04 12:51 50.46878 4.47335 585 ft 3 kts 65°
2026-05-04 12:52 50.46890 4.47377 585 ft 7 kts 65°
2026-05-04 12:52 50.46919 4.47476 585 ft 13 kts 66°
2026-05-04 12:52 50.46930 4.47584 587 ft 9 kts 124°
2026-05-04 12:52 50.46875 4.47633 589 ft 8 kts 155°
2026-05-04 12:53 50.46844 4.47656 592 ft 3 kts 155°
2026-05-04 12:53 50.46843 4.47657 592 ft 0 kts 155°
2026-05-04 12:53 50.46842 4.47657 592 ft 1 kts 155°
2026-05-04 12:54 50.46825 4.47670 593 ft 6 kts 155°
2026-05-04 12:54 50.46768 4.47711 595 ft 11 kts 155°
2026-05-04 12:54 50.46707 4.47743 593 ft 7 kts 189°
2026-05-04 12:54 50.46686 4.47702 592 ft 0 kts 245°
2026-05-04 12:55 50.46680 4.47683 592 ft 9 kts 245°
2026-05-04 12:55 50.46569 4.47295 596 ft 74 kts 245°
2026-05-04 12:55 50.46268 4.46263 588 ft 131 kts 245°
2026-05-04 12:55 50.45837 4.44767 757 ft 157 kts 244°
2026-05-04 12:56 50.45399 4.43216 1446 ft 156 kts 245°
2026-05-04 12:56 50.44969 4.41657 2236 ft 155 kts 245°
2026-05-04 12:56 50.44513 4.40087 2880 ft 161 kts 245°
2026-05-04 12:56 50.44052 4.38534 3624 ft 160 kts 244°
2026-05-04 12:57 50.43566 4.36861 4140 ft 182 kts 245°
2026-05-04 12:57 50.43251 4.34827 4646 ft 205 kts 273°
2026-05-04 12:57 50.43773 4.32619 5182 ft 232 kts 308°
2026-05-04 12:57 50.45104 4.31035 5837 ft 254 kts 339°
2026-05-04 12:58 50.46911 4.30617 6373 ft 274 kts
2026-05-04 12:58 50.48722 4.31550 6665 ft 277 kts 31°
2026-05-04 12:58 50.50374 4.33140 6904 ft 278 kts 32°
2026-05-04 12:58 50.51965 4.34791 7137 ft 278 kts 41°
2026-05-04 12:59 50.53104 4.37228 7388 ft 279 kts 69°
2026-05-04 12:59 50.53410 4.40211 7634 ft 279 kts 96°
2026-05-04 12:59 50.52940 4.43171 7929 ft 282 kts 108°
2026-05-04 12:59 50.52316 4.46113 8776 ft 283 kts 109°
2026-05-04 13:00 50.51687 4.49055 9838 ft 285 kts 109°
2026-05-04 13:00 50.51060 4.52068 10536 ft 299 kts 108°
2026-05-04 13:00 50.50403 4.55301 10895 ft 323 kts 108°
2026-05-04 13:00 50.49707 4.58766 11361 ft 339 kts 108°
2026-05-04 13:01 50.48997 4.62323 12226 ft 343 kts 108°
2026-05-04 13:01 50.48281 4.65918 13052 ft 348 kts 108°
2026-05-04 13:01 50.47574 4.69585 13864 ft 352 kts 107°
2026-05-04 13:01 50.46874 4.73295 14658 ft 355 kts 107°
2026-05-04 13:02 50.46172 4.77038 15483 ft 360 kts 107°
2026-05-04 13:02 50.45458 4.80833 16279 ft 364 kts 108°
2026-05-04 13:02 50.44733 4.84660 17043 ft 368 kts 108°
2026-05-04 13:02 50.44008 4.88472 18170 ft 357 kts 108°
2026-05-04 13:03 50.43315 4.92121 19398 ft 343 kts 109°
2026-05-04 13:03 50.42632 4.95704 20117 ft 346 kts 109°
2026-05-04 13:03 50.41936 4.99337 20723 ft 350 kts 109°
2026-05-04 13:03 50.41232 5.03009 21361 ft 353 kts 110°
2026-05-04 13:04 50.40522 5.06709 21978 ft 357 kts 110°
2026-05-04 13:04 50.39802 5.10454 22555 ft 361 kts 111°
2026-05-04 13:04 50.39069 5.14257 23097 ft 367 kts 111°
2026-05-04 13:04 50.38325 5.18100 23738 ft 371 kts 112°
2026-05-04 13:05 50.37573 5.21976 24317 ft 374 kts 112°
2026-05-04 13:05 50.36810 5.25891 24880 ft 378 kts 112°
2026-05-04 13:05 50.36039 5.29842 25453 ft 381 kts 112°
2026-05-04 13:05 50.35270 5.33779 26003 ft 385 kts 112°
2026-05-04 13:06 50.34485 5.37792 26506 ft 388 kts 112°
2026-05-04 13:06 50.33692 5.41836 26975 ft 391 kts 112°
2026-05-04 13:06 50.32889 5.45921 27419 ft 394 kts 112°
2026-05-04 13:06 50.32080 5.50029 27857 ft 397 kts 112°
2026-05-04 13:07 50.31262 5.54175 28277 ft 399 kts 112°
2026-05-04 13:07 50.30433 5.58363 28685 ft 403 kts 112°
2026-05-04 13:07 50.29605 5.62538 29108 ft 405 kts 112°
2026-05-04 13:07 50.28767 5.66758 29538 ft 407 kts 112°
2026-05-04 13:08 50.27922 5.71001 29932 ft 410 kts 112°
2026-05-04 13:08 50.27072 5.75262 30330 ft 411 kts 112°
2026-05-04 13:08 50.26216 5.79543 30661 ft 414 kts 113°
2026-05-04 13:08 50.25355 5.83843 31058 ft 415 kts 113°
2026-05-04 13:09 50.24492 5.88142 31506 ft 415 kts 113°
2026-05-04 13:09 50.23627 5.92441 31927 ft 414 kts 113°
2026-05-04 13:09 50.22752 5.96769 32054 ft 422 kts 113°
2026-05-04 13:10 50.20937 6.05689 32203 ft 439 kts 113°
2026-05-04 13:10 50.18572 6.14485 32361 ft 448 kts 121°
2026-05-04 13:10 50.17187 6.18874 32526 ft 453 kts 121°
2026-05-04 13:11 50.15796 6.23288 32888 ft 454 kts 121°
2026-05-04 13:11 50.14409 6.27704 33295 ft 453 kts 121°
2026-05-04 13:11 50.13026 6.32113 33688 ft 453 kts 121°
2026-05-04 13:11 50.11642 6.36522 34062 ft 452 kts 122°
2026-05-04 13:12 50.10260 6.40918 34359 ft 452 kts 122°
2026-05-04 13:12 50.08868 6.45328 34520 ft 455 kts 121°
2026-05-04 13:12 50.07463 6.49767 34764 ft 456 kts 121°
2026-05-04 13:12 50.06065 6.54178 35057 ft 456 kts 121°
2026-05-04 13:13 50.04661 6.58601 35370 ft 456 kts 121°
2026-05-04 13:13 50.03256 6.63017 35644 ft 456 kts 121°
2026-05-04 13:13 50.01848 6.67438 35906 ft 456 kts 121°
2026-05-04 13:13 50.00435 6.71861 36151 ft 456 kts 121°
2026-05-04 13:14 49.99043 6.76213 36417 ft 456 kts 121°
2026-05-04 13:14 49.97632 6.80615 36738 ft 455 kts 121°
2026-05-04 13:14 49.96218 6.85018 36961 ft 455 kts 121°
2026-05-04 13:14 49.94800 6.89425 37144 ft 457 kts 121°
2026-05-04 13:15 49.93376 6.93839 37363 ft 457 kts 121°
2026-05-04 13:15 49.91953 6.98246 37571 ft 457 kts 121°
2026-05-04 13:15 49.90530 7.02645 37793 ft 456 kts 121°
2026-05-04 13:15 49.89105 7.07046 37998 ft 456 kts 121°
2026-05-04 13:16 49.88175 7.09914 38135 ft 456 kts 121°
2026-05-04 13:16 49.86735 7.14347 38341 ft 456 kts 121°
2026-05-04 13:16 49.85305 7.18741 38531 ft 456 kts 121°
2026-05-04 13:16 49.83900 7.23053 38709 ft 456 kts 121°
2026-05-04 13:17 49.82520 7.27280 38844 ft 456 kts 121°
2026-05-04 13:17 49.81089 7.31656 38981 ft 455 kts 121°
2026-05-04 13:17 49.79657 7.36029 38988 ft 455 kts 121°
2026-05-04 13:18 49.76793 7.44751 38987 ft 454 kts 121°
2026-05-04 13:18 49.73925 7.53453 38991 ft 454 kts 121°
2026-05-04 13:19 49.71053 7.62137 38994 ft 454 kts 121°
2026-05-04 13:19 49.68178 7.70802 38991 ft 453 kts 121°
2026-05-04 13:20 49.65299 7.79447 38989 ft 453 kts 121°
2026-05-04 13:20 49.62416 7.88077 38985 ft 452 kts 121°
2026-05-04 13:21 49.59561 7.96594 38987 ft 452 kts 121°
2026-05-04 13:21 49.56664 8.05206 38982 ft 452 kts 121°
2026-05-04 13:22 49.53768 8.13788 38981 ft 451 kts 121°
2026-05-04 13:22 49.50883 8.22307 38983 ft 451 kts 121°
2026-05-04 13:23 49.47975 8.30865 38981 ft 451 kts 121°
2026-05-04 13:23 49.45061 8.39412 38981 ft 451 kts 122°
2026-05-04 13:24 49.42140 8.47950 38992 ft 451 kts 122°
2026-05-04 13:24 49.39215 8.56473 38994 ft 451 kts 122°
2026-05-04 13:25 49.34812 8.69249 38993 ft 452 kts 122°
2026-05-04 13:25 49.31867 8.77759 38993 ft 452 kts 122°
2026-05-04 13:26 49.28915 8.86258 38991 ft 452 kts 122°
2026-05-04 13:26 49.25959 8.94745 38975 ft 452 kts 122°
2026-05-04 13:27 49.22991 9.03235 38978 ft 452 kts 122°
2026-05-04 13:27 49.20049 9.11623 38980 ft 452 kts 122°
2026-05-04 13:28 49.17068 9.20096 38985 ft 453 kts 122°
2026-05-04 13:28 49.14081 9.28558 38993 ft 453 kts 122°
2026-05-04 13:29 49.11085 9.37018 38981 ft 453 kts 122°
2026-05-04 13:29 49.08083 9.45465 38982 ft 453 kts 122°
2026-05-04 13:30 49.05070 9.53919 38991 ft 454 kts 122°
2026-05-04 13:30 49.02052 9.62355 38989 ft 456 kts 122°
2026-05-04 13:31 48.99028 9.70788 38986 ft 453 kts 122°
2026-05-04 13:31 48.96029 9.79114 38996 ft 456 kts 122°
2026-05-04 13:32 48.92967 9.87596 38990 ft 455 kts 122°
2026-05-04 13:32 48.89932 9.95972 38989 ft 456 kts 122°
2026-05-04 13:33 48.86864 10.04414 38987 ft 456 kts 122°
2026-05-04 13:33 48.83792 10.12838 38985 ft 456 kts 122°
2026-05-04 13:34 48.80694 10.21304 38997 ft 456 kts 122°
2026-05-04 13:34 48.77628 10.29660 39003 ft 456 kts 122°
2026-05-04 13:35 48.72984 10.42264 39004 ft 457 kts 122°
2026-05-04 13:36 48.69877 10.50661 38991 ft 457 kts 122°
2026-05-04 13:36 48.66768 10.59036 38996 ft 457 kts 122°
2026-05-04 13:37 48.63653 10.67412 38996 ft 457 kts 122°
2026-05-04 13:37 48.60551 10.75735 38991 ft 457 kts 122°
2026-05-04 13:38 48.57852 10.84439 38979 ft 460 kts 111°
2026-05-04 13:38 48.55783 10.93580 38975 ft 460 kts 111°
2026-05-04 13:39 48.53712 11.02705 38972 ft 460 kts 111°
2026-05-04 13:39 48.51618 11.11818 38971 ft 460 kts 111°
2026-05-04 13:40 48.49512 11.20925 38967 ft 460 kts 111°
2026-05-04 13:40 48.47399 11.30023 38962 ft 460 kts 111°
2026-05-04 13:41 48.45279 11.39111 38967 ft 460 kts 111°
2026-05-04 13:41 48.43205 11.47969 38972 ft 460 kts 112°
2026-05-04 13:42 48.39999 11.61586 38971 ft 460 kts 112°
2026-05-04 13:42 48.37875 11.70564 38963 ft 460 kts 112°
2026-05-04 13:43 48.35722 11.79624 38977 ft 459 kts 112°
2026-05-04 13:43 48.33565 11.88664 38981 ft 459 kts 112°
2026-05-04 13:44 48.31421 11.97617 38969 ft 459 kts 112°
2026-05-04 13:44 48.29256 12.06614 38969 ft 458 kts 112°
2026-05-04 13:45 48.27081 12.15620 38965 ft 458 kts 112°
2026-05-04 13:45 48.24909 12.24577 38957 ft 458 kts 112°
2026-05-04 13:46 48.22722 12.33558 38946 ft 457 kts 112°
2026-05-04 13:46 48.20552 12.42433 38940 ft 457 kts 112°
2026-05-04 13:47 48.18360 12.51365 38940 ft 456 kts 112°
2026-05-04 13:47 48.16162 12.60281 38931 ft 456 kts 112°
2026-05-04 13:48 48.13944 12.69169 38926 ft 455 kts 114°
2026-05-04 13:48 48.11358 12.77801 38926 ft 454 kts 117°
2026-05-04 13:49 48.08754 12.86418 38928 ft 454 kts 116°
2026-05-04 13:49 48.06151 12.95019 38914 ft 454 kts 117°
2026-05-04 13:50 48.03534 13.03616 38910 ft 454 kts 117°
2026-05-04 13:50 48.00908 13.12203 38915 ft 455 kts 117°
2026-05-04 13:51 47.98271 13.20795 38918 ft 455 kts 117°
2026-05-04 13:51 47.95629 13.29371 38926 ft 455 kts 117°
2026-05-04 13:52 47.91650 13.42238 38931 ft 456 kts 117°
2026-05-04 13:53 47.89005 13.50753 38935 ft 456 kts 117°
2026-05-04 13:53 47.86355 13.59259 38934 ft 456 kts 117°
2026-05-04 13:54 47.82336 13.72098 38936 ft 455 kts 117°
2026-05-04 13:55 47.78321 13.84857 38942 ft 454 kts 117°
2026-05-04 13:55 47.74292 13.97602 38947 ft 454 kts 117°
2026-05-04 13:56 47.71601 14.06078 38944 ft 454 kts 117°
2026-05-04 13:57 47.67538 14.18820 38971 ft 456 kts 117°
2026-05-04 13:58 47.62102 14.35770 38962 ft 454 kts 117°
2026-05-04 13:58 47.58027 14.48399 38967 ft 455 kts 117°
2026-05-04 13:59 47.55286 14.56860 38974 ft 456 kts 117°
2026-05-04 14:00 47.51159 14.69548 38995 ft 457 kts 117°
2026-05-04 14:00 47.47014 14.82226 38970 ft 456 kts 117°
2026-05-04 14:01 47.44710 14.89247 38979 ft 456 kts 117°
2026-05-04 14:02 47.40554 15.01865 38986 ft 457 kts 117°
2026-05-04 14:02 47.37763 15.10303 38994 ft 457 kts 117°
2026-05-04 14:03 47.34963 15.18739 38993 ft 459 kts 117°
2026-05-04 14:03 47.32154 15.27176 38995 ft 458 kts 117°
2026-05-04 14:04 47.27933 15.39805 38996 ft 458 kts 117°
2026-05-04 14:04 47.25131 15.48153 38996 ft 457 kts 117°
2026-05-04 14:05 47.20891 15.60733 38978 ft 457 kts 117°
2026-05-04 14:06 47.18060 15.69099 38980 ft 457 kts 117°
2026-05-04 14:06 47.15219 15.77469 38978 ft 458 kts 117°
2026-05-04 14:07 47.12380 15.85804 38985 ft 458 kts 117°
2026-05-04 14:07 47.09544 15.94103 38986 ft 458 kts 117°
2026-05-04 14:08 47.06691 16.02427 38991 ft 459 kts 117°
2026-05-04 14:08 47.03804 16.10827 38996 ft 459 kts 117°
2026-05-04 14:09 46.99480 16.23280 39007 ft 460 kts 119°
2026-05-04 14:10 46.94832 16.35578 39020 ft 461 kts 119°
2026-05-04 14:10 46.91746 16.43807 39026 ft 461 kts 119°
2026-05-04 14:11 46.88642 16.52022 39026 ft 461 kts 120°
2026-05-04 14:11 46.84037 16.64136 39023 ft 460 kts 119°
2026-05-04 14:12 46.80926 16.72294 39026 ft 459 kts 119°
2026-05-04 14:13 46.76352 16.84244 39037 ft 459 kts 119°
2026-05-04 14:13 46.73233 16.92359 39043 ft 458 kts 119°
2026-05-04 14:14 46.70112 17.00455 39042 ft 458 kts 119°
2026-05-04 14:14 46.65431 17.12559 39035 ft 457 kts 119°
2026-05-04 14:15 46.59299 17.28325 39042 ft 456 kts 119°
2026-05-04 14:16 46.54566 17.40437 39041 ft 456 kts 119°
2026-05-04 14:17 46.49938 17.52228 39044 ft 456 kts 119°
2026-05-04 14:18 46.45247 17.64125 39055 ft 456 kts 119°
2026-05-04 14:19 46.39018 17.79846 39056 ft 456 kts 119°
2026-05-04 14:19 46.35851 17.87803 39060 ft 456 kts 119°
2026-05-04 14:20 46.32701 17.95696 39064 ft 456 kts 119°
2026-05-04 14:20 46.29542 18.03588 39062 ft 456 kts 119°
2026-05-04 14:21 46.24770 18.15466 39066 ft 456 kts 119°
2026-05-04 14:21 46.21645 18.23217 39070 ft 456 kts 119°
2026-05-04 14:22 46.18485 18.31035 39067 ft 456 kts 119°
2026-05-04 14:22 46.15273 18.38959 39071 ft 456 kts 119°
2026-05-04 14:23 46.10504 18.50685 39067 ft 456 kts 120°
2026-05-04 14:24 46.07287 18.58559 39068 ft 456 kts 120°
2026-05-04 14:24 46.04067 18.66422 39064 ft 456 kts 120°
2026-05-04 14:25 46.01178 18.73457 39064 ft 456 kts 120°
2026-05-04 14:25 45.96350 18.85179 39061 ft 455 kts 120°
2026-05-04 14:26 45.92929 18.92095 39056 ft 456 kts 130°
2026-05-04 14:26 45.88757 18.98973 39055 ft 457 kts 130°
2026-05-04 14:27 45.84590 19.05852 39058 ft 457 kts 130°
2026-05-04 14:27 45.80457 19.12682 39063 ft 457 kts 130°
2026-05-04 14:28 45.76311 19.19516 39076 ft 457 kts 130°
2026-05-04 14:28 45.72123 19.26394 39064 ft 458 kts 130°
2026-05-04 14:29 45.63729 19.40132 39070 ft 459 kts 130°
2026-05-04 14:30 45.59524 19.46989 39078 ft 459 kts 130°
2026-05-04 14:31 45.53197 19.57273 39086 ft 460 kts 130°
2026-05-04 14:32 45.44765 19.70920 39074 ft 460 kts 130°
2026-05-04 14:32 45.40534 19.77742 39094 ft 460 kts 130°
2026-05-04 14:33 45.36296 19.84559 39097 ft 460 kts 130°
2026-05-04 14:33 45.32056 19.91362 39098 ft 459 kts 130°
2026-05-04 14:34 45.27816 19.98149 39095 ft 459 kts 130°
2026-05-04 14:34 45.23614 20.04859 39100 ft 459 kts 130°
2026-05-04 14:35 45.19385 20.11596 39090 ft 455 kts 130°
2026-05-04 14:35 45.15164 20.18303 39084 ft 456 kts 130°
2026-05-04 14:36 45.10934 20.25011 39093 ft 457 kts 130°
2026-05-04 14:36 45.07471 20.30487 39094 ft 457 kts 130°
2026-05-04 14:37 45.02895 20.37709 39094 ft 458 kts 130°
2026-05-04 14:37 44.98636 20.44414 39105 ft 458 kts 130°
2026-05-04 14:38 44.94368 20.51116 39107 ft 459 kts 130°
2026-05-04 14:38 44.90126 20.57764 39110 ft 460 kts 130°
2026-05-04 14:39 44.85844 20.64455 39096 ft 460 kts 130°
2026-05-04 14:39 44.81557 20.71139 39103 ft 460 kts 130°
2026-05-04 14:40 44.75509 20.80544 39093 ft 460 kts 130°
2026-05-04 14:40 44.71205 20.87216 39091 ft 460 kts 130°
2026-05-04 14:41 44.66904 20.93866 39106 ft 459 kts 130°
2026-05-04 14:42 44.58523 21.06782 39089 ft 458 kts 130°
2026-05-04 14:42 44.54265 21.13323 39090 ft 457 kts 130°
2026-05-04 14:43 44.49984 21.19882 39091 ft 453 kts 130°
2026-05-04 14:43 44.45728 21.26388 39094 ft 454 kts 130°
2026-05-04 14:44 44.42179 21.31802 39093 ft 454 kts 130°
2026-05-04 14:44 44.37306 21.39218 39097 ft 454 kts 131°
2026-05-04 14:45 44.33023 21.45722 39098 ft 456 kts 131°
2026-05-04 14:45 44.29444 21.51143 39106 ft 458 kts 131°
2026-05-04 14:46 44.24426 21.58725 39101 ft 456 kts 131°
2026-05-04 14:46 44.20119 21.65218 39099 ft 456 kts 131°
2026-05-04 14:47 44.16503 21.70659 39099 ft 457 kts 131°
2026-05-04 14:47 44.12184 21.77143 39096 ft 456 kts 131°
2026-05-04 14:48 44.07896 21.83564 39090 ft 456 kts 131°
2026-05-04 14:48 44.03572 21.90025 39091 ft 456 kts 131°
2026-05-04 14:49 43.99236 21.96490 39085 ft 457 kts 131°
2026-05-04 14:49 43.94896 22.02946 39086 ft 457 kts 131°
2026-05-04 14:50 43.90552 22.09392 39081 ft 457 kts 131°
2026-05-04 14:50 43.86200 22.15836 39079 ft 458 kts 131°
2026-05-04 14:51 43.81845 22.22269 39080 ft 458 kts 131°
2026-05-04 14:51 43.77486 22.28694 39084 ft 458 kts 131°
2026-05-04 14:52 43.73121 22.35118 39080 ft 458 kts 131°
2026-05-04 14:52 43.68798 22.41574 39075 ft 457 kts 127°
2026-05-04 14:53 43.65131 22.48677 39080 ft 456 kts 122°
2026-05-04 14:53 43.61577 22.55910 39076 ft 455 kts 122°
2026-05-04 14:54 43.58006 22.63127 39072 ft 455 kts 122°
2026-05-04 14:54 43.54425 22.70328 39074 ft 455 kts 122°
2026-05-04 14:55 43.50837 22.77518 39082 ft 454 kts 122°
2026-05-04 14:55 43.47261 22.84670 39082 ft 453 kts 122°
2026-05-04 14:56 43.43704 22.91768 39079 ft 453 kts 122°
2026-05-04 14:56 43.40113 22.98914 39073 ft 454 kts 123°
2026-05-04 14:57 43.36516 23.06054 39081 ft 451 kts 122°
2026-05-04 14:57 43.32941 23.13136 39082 ft 452 kts 122°
2026-05-04 14:58 43.29352 23.20228 39074 ft 452 kts 122°
2026-05-04 14:58 43.25762 23.27306 39083 ft 452 kts 122°
2026-05-04 14:59 43.22154 23.34400 39092 ft 454 kts 122°
2026-05-04 15:00 43.16714 23.45066 39098 ft 456 kts 122°
2026-05-04 15:00 43.13114 23.52101 39090 ft 453 kts 122°
2026-05-04 15:01 43.07684 23.62688 39090 ft 456 kts 123°
2026-05-04 15:01 43.04032 23.69781 39099 ft 456 kts 123°
2026-05-04 15:02 43.00372 23.76874 39096 ft 456 kts 123°
2026-05-04 15:02 42.96739 23.83902 39095 ft 455 kts 123°
2026-05-04 15:03 42.93094 23.90936 39089 ft 453 kts 123°
2026-05-04 15:03 42.89450 23.97950 39081 ft 452 kts 123°
2026-05-04 15:04 42.85806 24.04946 39086 ft 452 kts 123°
2026-05-04 15:04 42.82138 24.11972 39105 ft 457 kts 122°
2026-05-04 15:05 42.78452 24.19016 39100 ft 455 kts 123°
2026-05-04 15:05 42.74778 24.26021 39099 ft 455 kts 123°
2026-05-04 15:06 42.71080 24.33058 39095 ft 457 kts 123°
2026-05-04 15:07 42.65582 24.43484 39092 ft 451 kts 123°
2026-05-04 15:07 42.61947 24.50359 39088 ft 452 kts 123°
2026-05-04 15:08 42.58274 24.57288 39083 ft 452 kts 123°
2026-05-04 15:08 42.54603 24.64200 39082 ft 451 kts 124°
2026-05-04 15:09 42.51114 24.71235 39068 ft 448 kts 117°
2026-05-04 15:09 42.48442 24.78849 39068 ft 447 kts 112°
2026-05-04 15:10 42.44652 24.90257 39049 ft 446 kts 112°
2026-05-04 15:11 42.40862 25.01558 39028 ft 445 kts 112°
2026-05-04 15:11 42.38314 25.09117 39025 ft 445 kts 112°
2026-05-04 15:12 42.35743 25.16731 39025 ft 445 kts 112°
2026-05-04 15:12 42.33361 25.23766 39011 ft 446 kts 112°
2026-05-04 15:13 42.30776 25.31384 39014 ft 446 kts 112°
2026-05-04 15:13 42.28180 25.39012 39019 ft 447 kts 112°
2026-05-04 15:14 42.25663 25.46388 39020 ft 448 kts 112°
2026-05-04 15:14 42.23049 25.54029 39021 ft 449 kts 112°
2026-05-04 15:15 42.20425 25.61676 39024 ft 449 kts 112°
2026-05-04 15:15 42.17793 25.69326 39032 ft 450 kts 112°
2026-05-04 15:16 42.13826 25.80817 39029 ft 451 kts 113°
2026-05-04 15:17 42.09837 25.92321 39034 ft 452 kts 113°
2026-05-04 15:17 42.05830 26.03831 39034 ft 453 kts 113°
2026-05-04 15:18 42.03155 26.11488 39022 ft 450 kts 113°
2026-05-04 15:19 41.99150 26.22915 39018 ft 451 kts 113°
2026-05-04 15:19 41.95149 26.34283 39027 ft 450 kts 113°
2026-05-04 15:20 41.92463 26.41888 39019 ft 450 kts 113°
2026-05-04 15:20 41.89771 26.49490 39017 ft 451 kts 113°
2026-05-04 15:21 41.86779 26.56884 39013 ft 452 kts 121°
2026-05-04 15:22 41.80964 26.66875 39013 ft 454 kts 128°
2026-05-04 15:22 41.74920 26.76635 39010 ft 454 kts 128°
2026-05-04 15:23 41.70897 26.83119 39010 ft 454 kts 128°
2026-05-04 15:23 41.66844 26.89635 38926 ft 456 kts 128°
2026-05-04 15:24 41.62813 26.96100 38432 ft 454 kts 128°
2026-05-04 15:24 41.58769 27.02570 37858 ft 452 kts 128°
2026-05-04 15:25 41.56755 27.05786 37564 ft 451 kts 127°
2026-05-04 15:25 41.54720 27.08986 36961 ft 453 kts 126°
2026-05-04 15:25 41.53011 27.12487 36205 ft 450 kts 116°
2026-05-04 15:26 41.50164 27.19935 34583 ft 451 kts 113°
2026-05-04 15:26 41.48752 27.23672 33821 ft 450 kts 113°
2026-05-04 15:26 41.45884 27.31096 31852 ft 453 kts 113°
2026-05-04 15:27 41.44422 27.34832 30816 ft 456 kts 113°
2026-05-04 15:27 41.41456 27.42363 28752 ft 458 kts 113°
2026-05-04 15:28 41.38545 27.49712 27756 ft 437 kts 112°
2026-05-04 15:28 41.37136 27.53266 27132 ft 430 kts 112°
2026-05-04 15:28 41.34385 27.60215 25944 ft 419 kts 112°
2026-05-04 15:29 41.33036 27.63619 25349 ft 414 kts 112°
2026-05-04 15:30 41.27742 27.76930 22925 ft 398 kts 111°
2026-05-04 15:30 41.23952 27.86423 21245 ft 382 kts 112°
2026-05-04 15:31 41.21485 27.92593 20138 ft 375 kts 112°
2026-05-04 15:31 41.20268 27.95632 19590 ft 372 kts 112°
2026-05-04 15:32 41.16658 28.04628 17921 ft 364 kts 112°
2026-05-04 15:32 41.14296 28.10488 16929 ft 359 kts 112°
2026-05-04 15:33 41.12318 28.15395 15979 ft 358 kts 112°
2026-05-04 15:34 41.08832 28.23999 14441 ft 348 kts 112°
2026-05-04 15:34 41.07818 28.26502 13943 ft 348 kts 112°
2026-05-04 15:34 41.05551 28.32085 12945 ft 340 kts 112°
2026-05-04 15:35 41.03333 28.37535 12025 ft 332 kts 111°
2026-05-04 15:35 41.02241 28.40217 11539 ft 330 kts 111°
2026-05-04 15:35 41.01157 28.42878 11078 ft 327 kts 111°
2026-05-04 15:36 40.99066 28.47999 10323 ft 319 kts 111°
2026-05-04 15:36 40.98142 28.50247 10196 ft 308 kts 111°
2026-05-04 15:36 40.97134 28.52702 9957 ft 300 kts 110°
2026-05-04 15:37 40.96149 28.55112 9548 ft 297 kts 110°
2026-05-04 15:37 40.95172 28.57511 9086 ft 296 kts 111°
2026-05-04 15:37 40.94202 28.59890 8862 ft 294 kts 111°
2026-05-04 15:37 40.93221 28.62291 8731 ft 297 kts 111°
2026-05-04 15:38 40.92241 28.64678 8599 ft 295 kts 111°
2026-05-04 15:38 40.91259 28.67068 8290 ft 296 kts 112°
2026-05-04 15:38 40.90279 28.69457 7908 ft 295 kts 112°
2026-05-04 15:38 40.89319 28.71791 7553 ft 292 kts 112°
2026-05-04 15:39 40.88437 28.73932 7217 ft 289 kts 112°
2026-05-04 15:39 40.87506 28.76189 6883 ft 286 kts 113°
2026-05-04 15:39 40.85765 28.80413 6201 ft 282 kts 114°
2026-05-04 15:40 40.84828 28.82681 5843 ft 280 kts 114°
2026-05-04 15:40 40.83900 28.84924 5486 ft 277 kts 114°
2026-05-04 15:40 40.82979 28.87150 5136 ft 276 kts 114°
2026-05-04 15:40 40.82062 28.89370 4764 ft 276 kts 114°
2026-05-04 15:41 40.81333 28.91133 4504 ft 274 kts 114°
2026-05-04 15:41 40.80433 28.93300 4416 ft 264 kts 114°
2026-05-04 15:41 40.79604 28.95290 4325 ft 255 kts 114°
2026-05-04 15:41 40.78840 28.97128 4265 ft 246 kts 114°
2026-05-04 15:42 40.78153 28.99108 4112 ft 232 kts 98°
2026-05-04 15:42 40.78102 29.01167 3986 ft 221 kts 74°
2026-05-04 15:42 40.78511 29.03042 3910 ft 206 kts 62°
2026-05-04 15:42 40.79069 29.04716 3803 ft 193 kts 57°
2026-05-04 15:43 40.79632 29.06239 3751 ft 176 kts 56°
2026-05-04 15:43 40.80182 29.07715 3655 ft 181 kts 56°
2026-05-04 15:43 40.80726 29.09195 3404 ft 178 kts 56°
2026-05-04 15:43 40.81271 29.10669 3148 ft 179 kts 57°
2026-05-04 15:44 40.81812 29.12140 3016 ft 178 kts 57°
2026-05-04 15:44 40.82171 29.13113 2959 ft 178 kts 57°
2026-05-04 15:44 40.82663 29.14450 2884 ft 178 kts 58°
2026-05-04 15:44 40.83206 29.15924 2707 ft 178 kts 58°
2026-05-04 15:45 40.83746 29.17390 2488 ft 177 kts 59°
2026-05-04 15:45 40.84253 29.18765 2275 ft 177 kts 59°
2026-05-04 15:45 40.84786 29.20216 2033 ft 171 kts 60°
2026-05-04 15:45 40.85269 29.21536 1815 ft 148 kts 59°
2026-05-04 15:46 40.85696 29.22692 1597 ft 135 kts 59°
2026-05-04 15:46 40.86116 29.23818 1407 ft 136 kts 60°
2026-05-04 15:46 40.86534 29.24947 1223 ft 138 kts 60°
2026-05-04 15:46 40.86910 29.26012 1066 ft 136 kts 62°
2026-05-04 15:47 40.87340 29.27177 882 ft 136 kts 60°
2026-05-04 15:47 40.87760 29.28298 664 ft 135 kts 63°
2026-05-04 15:47 40.88172 29.29405 485 ft 134 kts 62°
2026-05-04 15:47 40.88578 29.30505 306 ft 132 kts 62°
2026-05-04 15:48 40.88930 29.31463 306 ft 91 kts 64°
2026-05-04 15:48 40.89127 29.32008 307 ft 51 kts 63°
2026-05-04 15:48 40.89379 29.32442 306 ft 18 kts 30°
2026-05-04 15:49 40.89447 29.32502 306 ft 7 kts 28°
2026-05-04 15:49 40.89462 29.32506 306 ft 0 kts
2026-05-04 15:52 40.89486 29.32496 307 ft 5 kts 322°
2026-05-04 15:52 40.89498 29.32446 307 ft 7 kts 271°
2026-05-04 15:52 40.89509 29.32375 307 ft 10 kts 313°
2026-05-04 15:53 40.89577 29.32347 308 ft 10 kts 355°
2026-05-04 15:53 40.89647 29.32313 307 ft 13 kts 334°
2026-05-04 15:53 40.89732 29.32257 307 ft 14 kts 334°
2026-05-04 15:53 40.89827 29.32196 310 ft 15 kts 334°
2026-05-04 15:54 40.89915 29.32140 313 ft 14 kts 334°
2026-05-04 15:54 40.90003 29.32083 317 ft 13 kts 334°
2026-05-04 15:54 40.90068 29.32050 320 ft 9 kts 359°
2026-05-04 15:54 40.90110 29.32110 320 ft 11 kts 65°
2026-05-04 15:55 40.90148 29.32212 320 ft 14 kts 63°
2026-05-04 15:55 40.90189 29.32322 320 ft 13 kts 64°
2026-05-04 15:55 40.90226 29.32424 319 ft 12 kts 64°
2026-05-04 15:55 40.90264 29.32531 320 ft 13 kts 64°
2026-05-04 15:56 40.90295 29.32585 320 ft 3 kts 29°
2026-05-04 15:56 40.90296 29.32585 320 ft 0 kts 27°
2026-05-04 15:57 40.90299 29.32587 320 ft 2 kts 25°
2026-05-04 15:58 40.90324 29.32587 320 ft 6 kts 347°
2026-05-04 15:58 40.90380 29.32550 320 ft 13 kts 329°
2026-05-04 15:58 40.90481 29.32485 320 ft 17 kts 338°
2026-05-04 15:58 40.90564 29.32425 320 ft 9 kts 324°
2026-05-04 15:59 40.90587 29.32351 320 ft 10 kts 265°
2026-05-04 15:59 40.90556 29.32255 319 ft 13 kts 245°
2026-05-04 15:59 40.90516 29.32148 320 ft 9 kts 243°
2026-05-04 15:59 40.90488 29.32070 320 ft 9 kts 245°
2026-05-04 16:00 40.90496 29.31996 319 ft 10 kts 323°
2026-05-04 16:00 40.90561 29.31952 320 ft 11 kts 335°
2026-05-04 16:00 40.90613 29.31895 314 ft 9 kts 282°
2026-05-04 16:00 40.90587 29.31811 320 ft 12 kts 244°
2026-05-04 16:01 40.90550 29.31711 320 ft 12 kts 244°
2026-05-04 16:01 40.90509 29.31598 320 ft 15 kts 244°
2026-05-04 16:01 40.90466 29.31482 320 ft 11 kts 243°
2026-05-04 16:01 40.90477 29.31425 320 ft 8 kts 330°
2026-05-04 16:02 40.90526 29.31394 320 ft 4 kts 333°
2026-05-04 16:02 40.90540 29.31385 320 ft 2 kts 334°
2026-05-04 16:02 40.90541 29.31385 320 ft 0 kts 334°